Home   Weather   Woodbridge   Past weeks
Flag for South Africa

Past Weather in Woodbridge, South Africa — Yesterday and Last 2 Weeks

Now
48 °F

Clear.


Feels Like: 48 °F
Forecast: 68 / 29 °F
Wind: 1 mph from North

Location: Bloemfontein Airport

Current Time: Jul 15, 2019 at 9:08:18 pm

Latest Report: Jul 15, 2019 at 8:00 pm


Visibility: 10 mi

Pressure: 30.33 "Hg

Humidity: 43%

Dew Point: 27 °F

Location of WoodbridgeLocation

Past Weather in Woodbridge — Graph

°F

Woodbridge Temperature Yesterday

Maximum temperature yesterday: 72 °F (at 3:00 pm)
Minimum temperature yesterday: 30 °F (at 7:00 am)
Average temperature yesterday: 48 °F

High & Low Weather Summary for the Past Weeks

 TemperatureHumidityPressure
High73 °F (Jul 10, 3:00 pm)93% (Jul 2, 7:00 am)30.45 "Hg (Jul 2, 7:00 am)
Low25 °F (Jul 3, 5:00 am)15% (Jul 4, 2:00 pm)30.01 "Hg (Jul 1, 4:00 am)
Average47 °F53%30.30 "Hg
* Reported Jun 30 8:00 pm — Jul 15 8:00 pm, Woodbridge. Weather by CustomWeather, © 2019

Note: Actual official high and low records may vary slightly from our data, if they occured in-between our weather recording intervals... More about our weather records

Advertising

Woodbridge Weather History for the Previous 24 Hours

Scroll right to see more
 ConditionsComfort  
Time TempWeatherWind HumidityBarometerVisibility
8:00 pm
Mon, Jul 15
48 °FClear.1 mph43%30.33 "Hg10 mi
7:00 pm54 °FClear.No wind35%30.33 "Hg10 mi
6:00 pm61 °FClear.1 mph27%30.30 "Hg10 mi
5:00 pm68 °FPassing clouds.5 mph18%30.30 "HgN/A
4:00 pm72 °FSunny.2 mph17%30.30 "Hg10 mi
3:00 pm72 °FSunny.7 mph17%30.30 "Hg10 mi
2:00 pm72 °FPassing clouds.9 mph17%30.30 "HgN/A
1:00 pm70 °FPassing clouds.9 mph20%30.33 "HgN/A
12:00 pm68 °FPassing clouds.7 mph23%30.36 "HgN/A
11:39 am68 °FPassing clouds.8 mph23%30.36 "HgN/A
11:19 am66 °FPassing clouds.5 mph26%30.39 "HgN/A
11:00 am63 °FPassing clouds.5 mph27%30.39 "HgN/A
10:00 am55 °FPassing clouds.5 mph36%30.39 "HgN/A
9:05 am50 °FSunny.2 mph43%30.39 "Hg10 mi
8:49 am46 °FSunny.2 mph50%30.39 "Hg10 mi
8:08 am39 °FSunny.1 mph65%30.36 "Hg10 mi
8:00 am36 °FSunny.1 mph70%30.36 "Hg10 mi
7:00 am30 °FClear.2 mph80%30.33 "Hg10 mi
6:00 am32 °FClear.No wind75%30.33 "Hg10 mi
5:00 am32 °FClear.1 mph80%30.33 "Hg10 mi
4:00 am32 °FChilly.2 mph75%30.33 "HgN/A
3:00 am34 °FChilly.2 mph70%30.33 "HgN/A
2:00 am34 °FChilly.2 mph75%30.33 "Hg4 mi
1:00 am37 °FChilly.5 mph65%30.33 "HgN/A
12:00 am39 °FChilly.3 mph61%30.33 "HgN/A
11:00 pm
Sun, Jul 14
39 °FChilly.2 mph61%30.33 "HgN/A
10:00 pm39 °FChilly.2 mph56%30.30 "HgN/A
9:00 pm43 °FQuite cool.3 mph53%30.30 "HgN/A
Weather by CustomWeather, © 2019

See weather overview